Погода в Коротково

Россия / Забайкальский край     50°26′37″N   108°58′05″E
темп.,
°C
ветер,
м/с
пор.,
м/с
влажн.,
%
обл.,
%
осадки,
мм/ч
давл.,
гПа
погр.,
м
8 августа, пн
пн800:00+8сз117818 0.0 101412
03:00+10зюз117094 0.0 101414
06:00+5юз11903 0.0 101410
09:00+11юз116477 0.0 1013259
12:00+18зюз25440 0.0 10121225
15:00+22зсз38345 0.0 10092578
18:00+22сз47334 0.0 10082427
21:00+14ссз22600 0.0 101018
9 августа, вт
вт900:00+11ссз1168100 0.0 101216
03:00+9сз017023 0.0 101310
06:00+7вюв007337 0.0 101310
09:00+13ююз115644 0.0 1012181
12:00+20з243196 0.0 10101416
15:00+23сз462473 0.0 10071977
18:00+23сз462869 0.0 10071998
21:00+16ссз2253100 0.0 100816
10 августа, ср
ср1000:00+12с115928 0.0 100813
03:00+10ссв1165100 0.0 100910
06:00+11св1162100 0.0 100911
09:00+16в015048 0.0 1008208
12:00+21зюз123784 0.0 10071105
15:00+25юз133137 0.0 10052099
18:00+24зсз133333 0.0 10042307
21:00+18ссв2254100 0.0 100534
11 августа, чт
чт1100:00+13ссв2294100 3.4 100848
03:00+12ссв1195100 4.1 100920
06:00+12ююв009578 0.0 100911
09:00+14юз1188100 0.0 1010188
12:00+20ююз1154100 0.0 10081028
15:00+22юз3344100 0.0 10061816
18:00+21зсз1246100 0.0 10051257
21:00+16сз1170100 0.1 100611
12 августа, пт
пт1200:00+12з1190100 0.4 100712
03:00+11зюз119599 0.6 100816
06:00+10зюз119541 0.0 100913
09:00+14юз12878 0.1 1009213
12:00+20зсз464797 0.2 10071803
15:00+22сз573635 0.2 10052465
18:00+22зсз564037 0.0 10051918
21:00+16сз3661100 0.0 1007166